SCP
0 0 0 1 1 1 1 0 0 0 0 0 0 0 0 0 0 0 0 0 1 0 0 0 0 0 0 0 0 0 0 0 0 0 0 0 0 0 0 0 0 0 0 0 0 0 0 0 0
0 0 0 1 1 1 0 0 0 0 0 0 0 0 0 0 0 0 0 0 1 0 0 0 0 0 0 0 0 0 0 0 0 0 0 0 0 0 0 0 0 0 0 0 0 0 0 0 0
0 0 0 0 1 0 0 0 0 0 0 0 0 0 0 0 0 0 0 0 0 0 0 0 1 0 0 0 0 0 0 0 0 0 0 0 0 0 0 0 0 0 0 0 0 0 0 0 0
0 0 0 0 0 0 0 0 0 0 0 0 0 0 0 0 0 0 0 0 0 0 0 1 1 0 0 0 0 0 0 0 0 0 0 0 0 0 0 0 0 0 0 0 0 0 0 0 0
0 0 0 0 0 0 0 0 0 0 0 0 0 0 0 0 0 0 0 0 0 1 1 1 1 1 0 0 0 0 0 0 0 0 0 0 0 0 0 0 0 0 0 0 0 0 0 0 0
0 0 0 0 0 0 0 0 0 0 0 0 0 0 0 0 0 0 0 0 1 1 1 1 1 1 0 0 0 0 0 0 0 0 1 1 0 1 1 1 1 1 1 1 1 1 1 1 1
0 0 0 0 0 0 0 0 0 0 0 0 0 0 0 0 0 0 0 0 1 2 2 1 1 1 1 0 0 1 1 1 1 1 1 1 1 1 1 1 1 1 1 1 1 1 1 1 1
0 0 0 0 0 0 0 0 0 0 0 0 0 1 1 0 0 0 0 1 1 2 2 1 1 1 1 1 1 1 1 1 1 1 1 1 1 1 1 1 1 1 1 1 1 1 1 1 1
0 0 0 0 0 0 0 0 0 0 0 0 1 1 1 1 0 0 0 1 1 2 1 1 1 1 1 1 1 1 1 1 1 1 1 1 1 1 2 2 2 2 2 2 2 2 2 2 2
0 0 0 0 0 0 0 0 0 0 1 1 1 1 1 1 1 1 1 1 1 1 1 2 2 2 1 2 2 2 2 2 2 2 2 2 2 1 1 2 3 3 3 3 2 2 2 2 2
0 0 0 0 0 0 0 0 0 1 2 2 2 2 1 1 1 1 1 1 2 2 2 2 3 3 2 2 2 2 2 3 3 2 3 3 2 2 2 2 3 3 3 3 2 2 2 2 2
0 0 0 0 0 0 0 0 1 1 2 2 2 2 1 2 2 2 2 2 2 2 2 3 4 4 3 3 3 2 2 3 3 3 3 3 3 3 2 2 3 3 3 3 3 3 3 3 3
0 0 0 0 0 0 0 0 1 1 2 2 2 2 2 2 2 3 4 4 4 3 3 5 5 5 4 3 3 3 3 3 3 4 4 4 4 4 3 3 3 3 3 3 3 3 3 4 4
0 0 0 0 0 0 0 0 1 1 2 2 1 2 2 2 3 4 6 6 5 4 5 6 6 6 5 4 4 3 3 3 4 4 4 4 4 4 4 3 3 3 3 3 3 3 3 4 4
0 0 0 0 0 0 0 0 1 1 2 2 2 2 2 3 3 5 6 7 6 6 7 8 8 7 6 5 5 4 4 4 5 5 5 4 4 4 3 3 3 2 2 2 2 3 3 3 3
0 0 0 0 0 0 0 0 1 1 1 2 2 2 3 4 5 6 7 7 6 7 10 11 9 8 7 7 6 5 5 5 5 5 5 4 3 3 3 2 2 2 2 2 2 2 3 3 3
0 0 0 0 0 0 0 0 1 1 1 2 2 3 5 7 8 8 7 7 7 10 14 15 13 11 10 8 7 6 6 5 5 5 5 4 3 3 2 2 2 2 2 2 2 2 3 3 3
0 0 0 0 0 0 0 0 0 1 2 2 3 4 6 9 10 9 8 8 10 14 18 20 18 15 12 10 9 8 6 5 5 5 4 4 3 2 2 2 2 2 2 2 2 2 2 3 3
0 0 0 0 0 0 0 0 0 2 3 4 5 6 8 11 12 12 11 11 13 17 21 22 18 14 12 11 11 9 6 4 3 3 3 3 2 2 2 2 2 2 2 2 2 2 2 2 2
0 0 0 0 0 0 0 0 1 3 5 7 8 9 10 11 12 13 13 14 15 18 21 20 16 12 11 10 9 7 5 3 3 3 3 3 2 2 2 2 2 2 2 2 2 2 2 2 2
0 0 0 0 0 0 0 0 1 4 7 9 10 9 9 10 10 11 12 13 14 16 18 18 15 12 10 9 7 6 5 3 3 3 3 3 3 2 2 2 2 2 2 2 2 2 2 1 1
0 0 0 0 0 0 0 0 2 4 6 7 7 7 8 8 7 8 9 10 11 12 14 15 14 11 9 8 7 6 5 4 3 4 4 4 3 2 2 2 2 2 2 2 2 1 1 1 1
0 0 0 0 0 0 0 0 1 3 4 4 4 5 6 6 6 6 7 7 7 8 9 10 10 10 9 8 7 6 6 5 5 5 5 4 3 3 2 2 2 3 3 2 2 1 1 1 1
0 0 0 0 0 0 0 1 1 2 3 3 4 5 6 5 4 4 5 5 5 6 7 8 9 9 8 8 7 7 7 6 6 5 5 4 3 3 3 3 3 3 3 2 2 1 1 1 1
0 0 0 0 0 1 1 1 1 2 3 3 4 5 5 5 4 4 4 4 5 5 7 9 9 9 9 8 8 8 8 7 7 6 5 5 4 4 4 4 4 3 3 2 2 1 1 1 1
0 0 0 0 0 1 1 1 2 3 3 3 3 4 4 4 4 4 4 3 4 5 7 8 9 9 9 9 9 9 9 8 8 7 7 6 5 5 5 5 4 3 3 2 2 2 1 1 1
0 0 0 0 0 0 1 2 3 3 3 3 2 2 3 3 3 3 3 3 3 3 4 4 5 6 7 8 9 9 9 9 8 8 8 8 7 6 5 5 4 3 3 2 2 2 1 1 1
0 0 0 0 0 0 1 1 2 3 3 2 2 2 1 1 2 2 1 1 1 1 1 1 2 3 4 5 6 7 7 7 8 8 8 8 7 6 5 5 4 4 3 2 2 2 2 1 1
0 0 0 0 0 0 0 1 2 3 2 2 2 1 1 1 0 0 0 0 0 0 0 0 0 1 1 2 3 4 4 4 5 6 6 6 6 6 5 4 4 4 3 3 2 2 2 2 1
0 0 0 0 0 0 1 1 2 3 2 2 1 1 0 0 0 0 0 0 0 0 0 0 0 0 0 1 1 2 2 2 2 3 3 4 5 5 5 4 4 4 4 3 2 2 1 1 1
Wind_Speed
9 11 10 7 6 6 2 9 11 11 11 9 8 8 17 17 12 12 13 18 24 21 19 18 16 15 15 14 14 14 13 13 12 12 11 10 9 9 9 8 8 8 8 8 8 7 7 7 7
10 13 9 6 5 2 6 10 11 10 7 8 9 10 17 16 15 15 15 20 24 20 17 16 17 15 15 14 13 13 13 12 12 11 10 10 9 8 8 7 7 7 7 7 7 7 7 6 6
11 15 7 6 3 1 5 9 8 8 7 8 12 15 13 11 13 14 16 21 22 19 17 18 18 16 15 14 13 12 12 12 11 11 10 9 8 8 7 6 6 6 6 6 6 6 6 6 5
9 8 8 7 3 1 4 6 5 8 8 6 12 13 12 9 10 16 17 20 20 19 18 18 18 16 15 13 12 12 11 11 10 10 9 8 7 7 6 6 5 5 5 5 5 5 6 6 6
10 8 10 5 3 2 2 4 6 8 6 10 17 16 12 10 16 18 16 19 19 19 18 18 18 16 15 13 12 11 11 10 10 9 8 8 7 7 6 6 6 6 6 6 6 6 6 7 7
7 9 10 3 1 4 1 2 5 6 5 8 16 16 11 13 14 16 16 15 18 20 19 17 17 16 14 13 12 11 10 10 9 9 8 8 7 7 7 8 8 8 8 8 8 8 8 8 9
10 13 15 9 5 5 2 1 3 4 5 7 12 15 13 14 14 14 13 13 18 20 18 15 15 14 14 13 12 11 11 10 9 9 9 9 9 9 10 10 11 11 11 10 10 11 11 11 11
10 11 18 11 4 2 2 3 3 3 4 2 6 11 13 15 15 15 12 11 16 19 17 15 14 13 12 12 13 13 12 11 11 10 10 11 11 12 14 13 14 14 13 13 13 13 13 12 12
14 12 15 10 5 1 2 4 3 5 7 4 5 14 20 20 18 16 12 12 11 15 15 15 15 13 13 13 14 14 13 13 12 11 13 11 9 11 12 17 17 17 17 15 15 14 14 13 13
11 12 16 9 4 2 4 4 1 2 2 2 10 16 20 19 18 16 13 14 12 12 13 13 14 13 12 10 11 10 10 10 10 8 10 9 8 7 10 10 18 19 19 17 16 15 13 12 9
14 16 16 14 8 6 7 6 2 2 3 3 9 8 12 17 16 15 14 13 11 10 10 11 12 9 9 6 9 6 5 7 10 10 8 7 6 6 6 3 8 10 13 10 11 12 9 9 8
16 15 15 14 11 10 10 9 7 1 5 12 13 12 13 17 17 17 14 13 13 11 12 11 11 7 3 3 4 4 3 4 5 6 7 5 3 3 3 2 1 4 4 6 6 5 8 10 10
14 13 15 15 13 12 12 11 10 3 4 8 15 17 16 17 17 16 15 14 14 11 11 9 9 9 5 2 1 2 1 1 2 2 2 1 1 2 2 2 2 3 3 2 3 4 4 4 5
14 15 15 14 14 14 13 13 13 9 8 10 12 14 16 16 17 16 16 14 15 14 13 11 9 9 6 4 2 2 2 1 1 1 1 0 1 1 2 3 3 3 4 4 3 5 4 3 3
14 15 17 18 19 18 14 14 14 10 8 9 11 13 15 13 14 15 15 14 15 14 12 11 9 9 8 6 5 4 4 3 1 1 1 1 1 1 2 3 3 3 3 4 4 5 4 5 5
15 16 18 20 21 17 12 13 10 4 6 7 8 10 10 10 11 11 13 12 12 12 11 10 11 10 9 6 4 2 2 0 0 1 1 1 0 1 1 2 3 2 3 3 4 5 4 4 5
16 18 19 20 17 11 10 10 6 2 3 4 5 7 8 10 10 10 11 11 10 9 10 9 6 9 8 7 4 4 2 1 2 1 2 3 2 2 1 2 3 3 3 3 5 3 3 4 5
12 14 16 16 5 3 7 11 5 2 3 5 6 7 8 10 9 9 9 9 8 8 8 8 6 7 7 6 4 2 2 2 2 1 3 3 1 2 3 3 3 3 3 3 3 4 4 4 5
13 14 13 7 4 1 7 12 8 3 3 5 4 1 3 6 7 6 6 6 8 7 7 7 8 6 4 3 4 3 2 1 1 2 4 3 2 3 2 3 4 4 4 5 5 5 5 5 4
10 10 12 9 5 5 9 12 11 9 6 2 1 1 1 4 5 6 3 5 7 8 8 7 7 7 5 3 2 1 2 1 1 2 3 2 2 2 3 3 3 4 4 5 5 4 4 5 4
8 8 9 9 8 9 12 14 14 10 3 2 3 4 4 6 5 7 5 4 4 5 6 7 6 6 4 4 2 1 1 1 1 2 2 3 1 1 1 2 2 3 4 4 5 5 5 5 5
7 8 10 11 11 12 14 12 10 5 4 6 7 8 9 9 8 8 7 6 6 5 4 3 5 4 4 3 1 1 1 1 0 1 1 2 1 2 2 2 2 2 3 5 5 5 5 6 6
8 8 11 14 14 15 13 12 5 7 8 8 8 9 12 11 12 12 10 9 7 6 5 3 3 3 3 1 1 1 2 3 1 1 1 0 3 3 4 2 1 2 3 4 4 5 5 5 6
9 11 13 11 9 11 11 9 4 4 8 10 11 12 10 13 14 14 13 13 13 11 8 5 4 3 3 2 2 2 3 4 4 4 3 3 3 3 3 1 0 2 3 4 4 5 6 6 6
8 10 8 5 2 5 7 7 1 7 10 12 12 13 14 15 15 15 15 14 14 13 12 11 10 8 6 5 5 4 4 4 4 5 5 4 3 3 1 1 0 3 4 4 5 5 6 6 7
8 10 9 10 8 6 11 6 5 10 11 12 13 13 14 14 14 13 14 13 13 13 13 13 12 11 10 9 8 7 7 5 4 5 6 5 5 5 3 2 3 4 5 6 5 5 6 6 6
7 9 12 11 13 11 2 7 7 8 8 9 10 11 12 12 12 11 11 11 10 11 11 11 10 9 10 10 9 7 8 7 7 7 6 6 6 7 7 5 5 5 5 5 6 5 6 6 6
7 10 7 7 9 12 11 4 4 7 5 4 7 9 9 9 9 9 8 8 7 7 6 7 7 7 7 7 7 7 7 7 7 7 8 7 7 7 8 7 7 6 6 6 5 6 6 6 6
10 9 8 7 9 11 13 5 5 7 5 5 8 8 7 8 8 7 6 6 6 6 6 5 5 5 5 5 5 5 5 6 6 5 6 7 7 8 8 8 8 8 7 6 5 6 7 6 6
9 8 7 6 8 10 11 5 9 8 8 7 7 6 6 7 7 7 8 7 7 8 8 7 7 7 6 6 6 6 6 6 6 6 6 7 8 8 9 8 8 9 9 7 6 7 7 6 6
Wind_Direction
228 231 225 245 250 247 68 69 62 61 63 65 49 46 59 53 60 90 120 122 116 123 132 135 135 137 137 138 139 141 140 139 137 135 134 131 128 124 121 119 116 113 112 110 108 107 104 103 104
264 251 236 246 272 304 74 74 68 63 66 82 71 64 77 71 88 111 119 117 119 127 139 139 139 139 139 140 142 144 144 143 141 141 140 139 137 134 132 129 126 123 122 121 121 121 120 120 121
260 259 259 241 226 216 85 86 91 86 70 79 84 64 61 82 98 112 121 124 124 134 138 136 145 142 143 143 145 147 148 149 148 148 149 149 148 147 145 143 143 142 140 141 141 141 140 142 145
264 247 228 254 282 272 89 91 103 102 96 82 90 84 77 70 102 118 132 128 129 136 134 141 147 146 147 148 150 152 153 155 156 156 159 161 163 165 166 167 170 172 173 172 172 172 170 172 176
253 256 252 261 316 317 55 81 83 73 75 85 90 92 91 94 108 128 137 133 140 136 133 144 150 150 152 154 156 159 160 162 164 167 171 178 183 189 193 196 199 202 205 205 203 202 201 199 200
272 266 276 270 250 284 315 107 100 105 122 113 109 106 103 118 127 143 140 148 140 130 134 143 151 153 157 160 163 165 168 172 176 180 187 195 203 210 216 218 219 220 222 224 224 221 219 217 215
272 291 291 277 211 223 228 245 117 140 109 96 109 112 125 134 143 142 143 157 135 130 133 147 153 158 162 166 170 174 177 181 187 194 201 209 217 223 228 229 229 229 229 229 229 228 227 226 225
278 290 290 287 254 200 185 243 157 126 62 89 117 116 138 143 149 141 160 150 131 131 140 152 155 161 167 173 179 182 185 190 196 204 211 218 226 230 232 232 228 231 231 230 231 232 231 230 230
267 270 276 294 337 333 209 253 147 122 147 215 65 113 139 150 150 150 162 145 138 139 145 156 156 165 175 178 177 184 190 196 201 209 217 223 232 234 226 227 224 223 226 227 229 232 233 233 233
250 265 276 302 332 301 279 267 169 175 158 75 79 105 134 151 152 157 165 157 153 147 153 158 156 168 183 184 159 185 191 191 203 210 203 210 226 244 250 213 215 218 220 223 226 230 235 234 239
256 264 284 301 314 319 300 288 265 203 120 87 97 117 158 156 157 164 172 163 156 158 164 160 153 168 180 168 160 190 192 175 197 215 202 205 221 237 248 213 200 210 217 221 225 225 228 230 230
256 266 285 294 306 308 298 300 290 280 138 130 135 168 193 169 170 174 174 164 159 173 174 167 152 158 185 172 167 178 194 170 195 195 203 207 203 245 276 289 230 207 212 210 228 216 217 226 235
269 269 273 275 277 276 278 279 279 258 145 130 150 175 195 186 177 175 171 168 163 178 176 162 153 155 169 177 264 204 205 184 180 160 195 215 223 257 296 315 317 297 287 263 241 253 243 241 253
282 287 286 285 281 272 266 265 264 234 179 163 169 190 201 195 179 173 170 170 169 179 177 161 161 152 157 165 186 276 262 189 241 196 179 190 271 317 317 295 285 277 281 286 287 285 282 270 261
266 272 274 269 261 254 255 258 257 245 184 178 181 195 207 192 182 177 170 170 173 178 169 155 163 154 158 179 193 210 227 216 189 160 197 199 230 262 272 270 267 267 279 282 279 276 271 261 252
271 262 261 257 250 242 238 259 267 248 193 185 195 201 194 173 185 180 169 169 171 170 155 161 171 160 161 174 182 234 245 56 196 202 189 138 36 307 279 275 276 293 286 276 268 259 262 264 261
248 247 253 256 245 233 240 261 258 136 241 225 216 205 182 166 183 182 170 173 169 154 145 152 157 152 157 162 174 212 190 193 252 206 106 79 29 343 330 311 298 298 284 277 284 294 282 276 270
282 267 246 249 238 213 265 272 257 163 275 267 229 212 180 173 182 178 167 175 161 140 136 137 129 125 139 151 172 206 193 191 209 140 103 82 25 15 14 309 329 332 302 294 300 303 289 276 271
305 305 309 314 59 19 280 286 288 284 239 262 271 254 185 162 160 140 146 149 140 130 131 136 137 137 151 160 179 181 167 180 172 132 104 90 44 35 354 325 351 324 319 329 315 303 300 292 278
282 286 290 296 301 270 269 272 271 261 244 247 352 95 208 128 110 115 114 125 133 134 130 129 139 155 166 137 128 136 128 200 182 101 109 105 70 24 324 24 334 334 332 306 302 314 301 296 299
296 304 310 316 316 290 272 263 255 241 215 102 39 37 61 88 108 108 97 83 92 111 136 148 148 153 151 141 178 165 155 234 194 131 141 121 86 284 306 317 311 324 307 313 331 308 308 308 303
320 335 323 308 291 280 277 276 260 192 118 69 41 24 37 57 58 62 68 75 80 83 83 101 127 137 138 155 197 228 240 263 182 165 130 115 220 242 238 245 275 306 306 306 309 346 331 310 301
309 308 293 286 281 277 280 283 281 119 101 84 76 58 56 58 58 54 48 54 59 69 79 80 111 137 148 163 357 325 299 303 332 19 68 251 250 231 229 223 247 300 291 304 320 311 302 296 291
309 296 285 287 306 299 326 318 311 79 106 98 80 79 70 68 63 55 47 42 41 39 43 48 62 55 39 18 338 303 308 322 329 325 308 280 267 246 226 216 144 292 293 309 302 293 290 286 288
308 297 296 311 9 271 271 272 111 77 76 91 90 81 74 64 58 53 46 40 41 37 31 33 39 34 18 11 359 352 346 328 306 295 292 290 290 286 318 16 337 284 286 281 277 282 283 282 280
305 297 299 310 303 249 213 221 104 79 77 78 78 73 68 67 62 57 51 45 40 37 32 30 28 27 20 16 12 8 5 351 342 342 335 324 315 315 337 316 281 274 275 282 286 289 283 282 283
305 309 316 306 301 304 242 117 108 80 76 78 76 70 64 63 62 58 54 47 41 37 36 28 25 24 19 12 5 16 15 5 354 344 333 328 329 321 328 320 298 282 277 277 281 280 284 285 281
293 306 310 316 318 314 318 83 147 146 133 103 75 63 55 51 52 51 50 47 40 33 33 29 20 15 11 8 2 2 0 358 351 344 341 334 328 322 314 306 298 287 278 274 274 280 282 288 286
316 314 329 320 314 316 317 23 96 130 124 99 78 59 39 26 23 21 21 19 12 8 4 2 358 352 347 343 343 339 339 341 336 332 333 332 324 316 307 302 296 289 281 273 270 275 280 287 293
303 304 311 313 317 310 307 52 61 75 68 56 49 36 14 355 348 344 343 344 345 345 344 339 335 328 325 325 324 322 323 322 317 315 318 319 317 315 308 297 292 289 285 279 273 275 283 290 296